Location: ??????
(31.2056°N, 45.3906°E)
Time: 14:01:06
(UTC+00:00)

Resurs 01 Rocket - Pass Details

Date: 09 April 2020
Orbit: 634 x 644 km, 98.0° (Epoch: 05 June)

Event Time Altitude Azimuth Distance (km) Brightness Sun altitude
Exits shadow 17:40:08 37° 355° (N) 983 2.7 -28.3°
Drops below altitude 10° 17:42:51 10° 351° (N) 2,025 4.6 -28.8°
Sets 17:45:03 0° 350° (N) 2,939 5.6 -29.2°
